Powrót do katalogu

METEOR 2-8 DEB

AktywnyPO
NORAD 36330·DEBRIS·🇷🇺 Russia

Wystrzelony Mar 25, 1982 z Plesetsk Cosmodrome

Loading…

Następne Przeloty (najbliższe 24 godziny)

TLE

NieaktualneSource: Space-Track

Epoka: Sep 2, 2026, 23:16 UTC

1 36330U 82025Q   26245.96947894  .00002443  00000-0  87878-3 0  9991
2 36330  82.5350 125.4912 0026532  60.9783 299.4058 14.33276554725141

Śledź METEOR 2-8 DEB w czasie rzeczywistym z AllMySat

Download on the App Store